Weather History for KSUS - June, 2013

Change the Weather History Date:

Tuesday, June 18, 2013

  Actual Average (KSTL) Record (KSTL)
Temperature  
Mean Temperature 75 °F 77 °F  
Max Temperature 89 °F 86 °F 100 °F (1953)
Min Temperature 62 °F 68 °F 52 °F (1961)
Degree Days  
Heating Degree Days 0 0  
Month to date heating degree days 3  
Since 1 June heating degree days 3  
Since 1 July heating degree days 4533  
Cooling Degree Days 10 12  
Month to date cooling degree days 172  
Year to date cooling degree days 346  
Since 1 June cooling degree days 172  
Growing Degree Days 25 (Base 50)    
Moisture  
Dew Point 63 °F    
Average Humidity 77    
Maximum Humidity 100    
Minimum Humidity 41    
Precipitation  
Precipitation 0.01 in 0.15 in 3.50 in (1875)
Month to date precipitation 2.69  
Year to date precipitation 19.06  
Snow  
Snow 0.00 in 0.00 in 0.00 in (2014)
Month to date snowfall 0.0  
Since 1 June snowfall 0.0  
Since 1 July snowfall 17.7  
Snow Depth -    
Sea Level Pressure  
Sea Level Pressure 29.93 in    
Wind  
Wind Speed 3 mph (West)    
Max Wind Speed 12 mph    
Max Gust Speed -    
Visibility 8 miles    
Events      
T = Trace of Precipitation, MM = Missing Value Source: NWS Daily Summary

Daily Weather History Graph

Daily Weather History Graph

Search for Another Location

Airport or City:

Trip Planner

Search our weather history database for the weather conditions in past years. The results will help you decide how hot, cold, wet, or windy it might be!

Date:

Astronomy

Jun. 18, 2013 Rise Set
Actual Time 5:37 AM CDT 8:29 PM CDT
Civil Twilight 5:05 AM CDT 9:01 PM CDT
Nautical Twilight 4:25 AM CDT 9:42 PM CDT
Astronomical Twilight 3:39 AM CDT 10:28 PM CDT
Moon 3:17 PM CDT (6/18) 1:43 AM CDT (6/18)
Length of Visible Light 15h 56m
Length of Day
14h 52m
Waxing Gibbous, 71% of the Moon is Illuminated
Jun 18
Waxing Gibbous
Jun 23
Full
Jun 29
Last Quarter
Jul 8
New
Jul 15
First Quarter

Hourly Weather History & Observations

Time (CDT) Temp. Heat Index Dew Point Humidity Pressure Visibility Wind Dir Wind Speed Gust Speed Precip Events Conditions
12:54 AM 64.9 °F - 63.0 °F 93% 29.91 in 10.0 mi Calm Calm - N/A   Clear
1:50 AM 64.4 °F - 62.6 °F 94% 29.93 in 2.0 mi SW 3.5 mph - N/A   Partly Cloudy
1:54 AM 64.0 °F - 62.1 °F 93% 29.91 in 1.0 mi WSW 3.5 mph - N/A   Mist
1:56 AM 64.4 °F - 62.6 °F 94% 29.93 in 0.8 mi WSW 4.6 mph - N/A   Mist
2:27 AM 64.4 °F - 62.6 °F 94% 29.93 in 1.2 mi Calm Calm - N/A   Partly Cloudy
2:32 AM 62.6 °F - 62.6 °F 100% 29.93 in 3.0 mi Calm Calm - N/A   Partly Cloudy
2:43 AM 62.6 °F - 62.6 °F 100% 29.94 in 2.5 mi Calm Calm - N/A   Clear
2:52 AM 62.6 °F - 62.6 °F 100% 29.94 in 9.0 mi Calm Calm - N/A   Clear
2:54 AM 64.0 °F - 62.1 °F 93% 29.92 in 9.0 mi Calm Calm - N/A   Clear
3:54 AM 63.0 °F - 61.0 °F 93% 29.93 in 10.0 mi Calm Calm - 0.01 in   Clear
4:54 AM 63.0 °F - 61.0 °F 93% 29.95 in 10.0 mi WNW 4.6 mph - N/A   Clear
5:54 AM 63.0 °F - 61.0 °F 93% 29.94 in 6.0 mi Calm Calm - N/A   Clear
6:54 AM 64.9 °F - 63.0 °F 93% 29.95 in 9.0 mi Calm Calm - N/A   Clear
7:54 AM 68.0 °F - 64.0 °F 87% 29.96 in 10.0 mi WSW 5.8 mph - N/A   Partly Cloudy
8:54 AM 71.1 °F - 64.9 °F 81% 29.95 in 10.0 mi West 4.6 mph - N/A   Partly Cloudy
9:54 AM 75.0 °F - 68.0 °F 79% 29.95 in 10.0 mi SW 6.9 mph - N/A   Scattered Clouds
10:54 AM 79.0 °F - 70.0 °F 74% 29.94 in 10.0 mi WSW 4.6 mph - N/A   Scattered Clouds
11:54 AM 82.0 °F 86.3 °F 71.1 °F 69% 29.94 in 10.0 mi West 5.8 mph - N/A   Scattered Clouds
12:54 PM 86.0 °F 88.2 °F 66.0 °F 51% 29.94 in 10.0 mi NNW 4.6 mph - N/A   Scattered Clouds
1:54 PM 87.1 °F 87.5 °F 62.1 °F 43% 29.93 in 10.0 mi NW 4.6 mph - N/A   Scattered Clouds
2:54 PM 88.0 °F 88.4 °F 62.1 °F 42% 29.92 in 10.0 mi WNW 6.9 mph - N/A   Scattered Clouds
3:54 PM 88.0 °F 88.4 °F 62.1 °F 42% 29.91 in 10.0 mi WNW 6.9 mph - N/A   Mostly Cloudy
4:54 PM 87.1 °F 87.0 °F 61.0 °F 41% 29.90 in 10.0 mi WNW 8.1 mph - N/A   Mostly Cloudy
5:54 PM 84.9 °F 84.8 °F 60.1 °F 43% 29.90 in 10.0 mi NW 6.9 mph - N/A   Clear
6:54 PM 82.9 °F 83.2 °F 60.1 °F 46% 29.90 in 10.0 mi NNW 11.5 mph - N/A   Mostly Cloudy
7:54 PM 80.1 °F 81.5 °F 63.0 °F 56% 29.92 in 10.0 mi NW 4.6 mph - N/A   Scattered Clouds
8:54 PM 73.9 °F - 64.0 °F 71% 29.93 in 10.0 mi SW 3.5 mph - N/A   Scattered Clouds
9:54 PM 70.0 °F - 64.0 °F 81% 29.95 in 10.0 mi Calm Calm - N/A   Clear
10:54 PM 66.9 °F - 62.1 °F 84% 29.95 in 10.0 mi WSW 4.6 mph - N/A   Clear
11:54 PM 66.9 °F - 63.0 °F 87% 29.96 in 10.0 mi WSW 3.5 mph - N/A   Clear